User: anonymous   Login
Location: Mladá Boleslav
(50.4134°N, 14.9084°E)
Time: 10:18:10
(UTC+02:00)
Language:

NOAA 18 - Orbit

View from above orbital plane
View from above orbital plane
View from above satellite
View from above satellite

Ground track
Ground track

The orbit data is extracted from the following two-line orbital elements,

1 28654U 05018A   24142.16258974  .00000512  00000-0  29686-3 0  9996
2 28654  98.8743 219.3514 0015132 137.4307 222.8041 14.13210577979441
Epoch (UTC): 21 May 2024 03:54:07
Eccentricity: 0.0015132
inclination: 98.8743°
perigee height: 837 km
apogee height: 859 km
right ascension of ascending node: 219.3514°
argument of perigee: 137.4307°
revolutions per day: 14.13210577
mean anomaly at epoch: 222.8041°
orbit number at epoch: 97944

The dashed part of the orbit path shows where the satellite is in the earth's shadow,  

DLR